Regional Weather Roundup
Issued by NWS

Home | Current Version | Previous Version | Text Only | Print | Product List | Glossary On
Versions: 1 2 3 4 5 6 7 8 9 10 11 12 13 14 15 16 17 18 19 20 21 22 23 24 25 26 27 28 29 30 31 32 33 34 35 36 37 38 39 40 41 42 43 44 45 46 47 48 49 50
000
ASUS44 KLIX 230210
RWRLA
LOUISIANA WEATHER ROUNDUP
NATIONAL WEATHER SERVICE NEW ORLEANS LA
900 PM CDT WED OCT 22 2014

NOTE: "FAIR" INDICATES FEW OR NO CLOUDS BELOW 12,000 FEET WITH NO
      SIGNIFICANT WEATHER AND/OR OBSTRUCTIONS TO VISIBILITY.
      SKY/WX - SKY CONDITION AND SIGNIFICANT WEATHER.
      TMP - AIR TEMPERATURE.    DP   - DEWPOINT TEMPERATURE.
      RH  - RELATIVE HUMIDITY.  PRES - PRESSURE.
      HX  - HEAT INDEX.         WCI  - WIND CHILL INDEX.

*  THESE STATIONS ARE NOT NWS OR FAA STATIONS AND ARE NOT UNDER
   NWS QUALITY CONTROL.

LAZ040-048-061>063-065-066-069-230300-
SOUTHEAST LOUISIANA

CITY           SKY/WX    TMP DP  RH WIND       PRES   REMARKS
N.O. AUDUBON     N/A     67  58  72 MISG        N/A
N.O. INTL ARPT CLEAR     70  56  61 NE5       30.06R
N.O. LAKEFRONT CLEAR     73  60  63 NE12      30.06R
N.O. DOWNTOWN* FAIR      73  54  49 CALM      30.06R
SLIDELL        CLEAR     59  55  87 N5        30.06R
BATON ROUGE    CLEAR     59  55  87 CALM      30.07R
BOOTHVILLE     CLEAR     72  60  66 NE6       30.05R
BELLE CHASSE   CLEAR     59  55  87 CALM      30.06R
BOGALUSA*      FAIR      59  51  74 CALM      30.09S
NEW ROADS*     FAIR      61  55  78 NE3       30.08R
GONZALES*      FAIR      60  60 100 CALM      30.06R
HAMMOND*       CLEAR     61  52  72 N6        30.09R
HOUMA*         CLEAR     58  55  90 SE3       30.06R
PORT FOURCHON* CLEAR     72  59  64 NE7       30.08S

$$

LAZ041-044-053-054-230300-
SOUTHWEST LOUISIANA

CITY           SKY/WX    TMP DP  RH WIND       PRES   REMARKS
LAKE CHARLES   CLEAR     66  55  67 NE7       30.07R
LAFAYETTE      CLEAR     64  56  75 NE5       30.07R
PATTERSON      CLEAR     61  59  94 CALM      30.09R
SALT POINT       N/A     67  60  78 CALM      30.05R
NEW IBERIA     CLEAR     67  56  67 NE8       30.07S
CHENAULT AIRPK CLEAR     66  55  68 N3        30.08R

$$

LAZ027-028-230300-
CENTRAL LOUISIANA

CITY           SKY/WX    TMP DP  RH WIND       PRES   REMARKS
FORT POLK      CLEAR     64  55  72 NE6       30.10R
ALEXANDRIA INT CLEAR     61  54  77 N6        30.09R
ALEXANDRIA     CLEAR     55  53  93 CALM      30.10R

$$

LAZ001-002-230300-
NORTHWEST LOUISIANA

CITY           SKY/WX    TMP DP  RH WIND       PRES   REMARKS
SHREVEPORT     CLEAR     64  53  67 NE7       30.13R
BARKSDALE AFB  CLEAR     61  53  72 NE6       30.14R
DTN SHREVEPORT CLEAR     61  54  77 CALM      30.14R

$$

LAZ014-016-230300-
NORTHEAST LOUISIANA

CITY           SKY/WX    TMP DP  RH WIND       PRES   REMARKS
MONROE         CLEAR     60  51  72 CALM      30.15R
TALLULAH       CLEAR     61  48  62 NE9       30.12S

$$




USA.gov is the U.S. government's official web portal to all federal, state and local government web resources and services.